Skip Page Navigation
NASA JPL Caltech
NASA Logo - Jet Propulsion Laboratory + View the NASA Portal
+ Center for Near-Earth Object Studies
JPL Home Earth Solar System Stars & Galaxies Technology
JPL Solar System Dynamics
BODIES ORBITS EPHEMERIDES TOOLS PHYSICAL DATA DISCOVERY FAQ SITE MAP
JPL Small-Body Database Browser
Search: [ help ]  
180 Garumna (A878 BA)
Classification: Main-belt Asteroid          SPK-ID: 2000180
Ephemeris | Orbit Diagram | Orbital Elements | Mission Design | Physical Parameters | Discovery Circumstances | Close-Approach Data ]

[ hide orbit diagram ]

For accurate long-term ephemerides, please instead use our Horizons system.This orbit viewer was implemented using two-body methods, and hence should not be used for determining accurate long-term trajectories (over several years or decades) or planetary encounter circumstances.


Orbital Elements at Epoch 2459000.5 (2020-May-31.0) TDB
Reference: JPL 36 (heliocentric ecliptic J2000)
 Element Value Uncertainty (1-sigma)   Units 
e .1673893087771174 3.2974e-08  
a 2.720860828621471 8.3299e-09 au
q 2.265417815239788 9.0858e-08 au
i .8677913775926629 3.8211e-06 deg
node 311.8667541855863 0.00026107 deg
peri 176.1796009990168 0.00026136 deg
M 248.9736266536859 1.3553e-05 deg
tp 2459506.070322447605
(2021-Oct-18.57032245)
6.2717e-05 TDB
period 1639.298038795034
4.49
7.528e-06
2.061e-08
d
yr
n .2196061920897667 1.0085e-09 deg/d
Q 3.176303842003154 9.7242e-09 au
  Orbit Determination Parameters
   # obs. used (total)      3134  
   data-arc span      37100 days (101.57 yr)  
   first obs. used      1919-04-21  
   last obs. used      2020-11-16  
   planetary ephem.      DE431  
   SB-pert. ephem.      SB431-N16  
   condition code      0  
   norm. resid. RMS      .44307  
   source      ORB  
   producer      Otto Matic  
   solution date      2020-Dec-18 01:51:33  

Additional Information
 Earth MOID = 1.28049 au 
 Jupiter MOID = 1.88243 au 
 T_jup = 3.338 
[ show covariance matrix ]

Ephemeris | Orbit Diagram | Orbital Elements | Mission Design | Physical Parameters | Discovery Circumstances | Close-Approach Data ]

Physical Parameter Table
Parameter Symbol Value Units Sigma Reference Notes
absolute magnitude H 10.2   n/a MPO502154  
diameter diameter 23.440 km 0.414 urn:nasa:pds:neowise_diameters_albedos::2.0[mainbelt] (http://adsabs.harvard.edu/abs/2014ApJ...791..121M)  
rotation period rot_per 23.866 h n/a LCDB (Rev. 2020-October); Warner et al., 2009 Published Reference List:
[Behrend, R. (2004) Observatoire de Geneve web site, http://obswww.unige.ch/~behrend/page_cou.html]
[Stephens, R.D. (2008) Minor Planet Bull. 35, 60-61.]
[Clark, M. (2010) Minor Planet Bull. 37, 89-92.]
[Pilcher, F.; Benishek, V.; Delos, S.; Barker, T.; et al. (2012) Minor Planet Bull. 39, 46.]
[Hanus, J.; Durech, J.; Oszkiewicz, D.A.; Behrend, R.; et al. (2016) Astron. Astrophys. 586, A108.]
geometric albedo albedo 0.242   0.030 urn:nasa:pds:neowise_diameters_albedos::2.0[mainbelt] (http://adsabs.harvard.edu/abs/2014ApJ...791..121M)  
B-V BV 0.829   0.025 EAR-A-5-DDR-UBV-MEAN-VALUES-V1.2 #obs=2; phase (min.=2.69, mean=6.06, max.=9.42) deg.
U-B UB 0.451   0.052 EAR-A-5-DDR-UBV-MEAN-VALUES-V1.2 #obs=2; phase (min.=2.69, mean=6.06, max.=9.42) deg.
Tholen spectral type spec_T S   n/a EAR-A-5-DDR-TAXONOMY-V4.0 used 2 color indices
SMASSII spectral type spec_B Sq   n/a EAR-A-5-DDR-TAXONOMY-V4.0 based on a high-resolution spectrum by Xu et al. (1995) or Bus and Binzel (2002)

180 Garumna (A878 BA)          Discovered 1878-Jan-29 by Perrotin, J. at Toulouse
Reference: DISCOVERY.DBLast Updated: 2003-08-29

[ show close-approach data ]
Ephemeris | Orbit Diagram | Orbital Elements | Mission Design | Physical Parameters | Discovery Circumstances | Close-Approach Data ]
ABOUT SSD CREDITS/AWARDS PRIVACY/COPYRIGHT GLOSSARY LINKS
FirstGov 2021-Jan-23 02:55 UT
(server date/time)  
NASA Home Page
Site Manager:   Ryan S. Park
Webmaster  Alan B. Chamberlin